TimeCST,TemperatureF,Dew PointF,Humidity,Sea Level PressureIn,VisibilityMPH,Wind Direction,Wind SpeedMPH,Gust SpeedMPH,PrecipitationIn,Events,Conditions,WindDirDegrees,DateUTC
12:53 AM,23.0,15.1,72,30.24,10.0,SW,9.2,-,N/A,,Mostly Cloudy,220,2013-01-03 06:53:00
1:43 AM,19.4,14.0,80,30.21,10.0,SW,6.9,-,N/A,,Scattered Clouds,230,2013-01-03 07:43:00
1:53 AM,19.9,14.0,78,30.25,10.0,WSW,6.9,-,N/A,,Clear,250,2013-01-03 07:53:00
2:29 AM,23.0,17.6,80,30.22,10.0,West,6.9,-,N/A,,Mostly Cloudy,280,2013-01-03 08:29:00
2:53 AM,24.1,18.0,77,30.26,10.0,WNW,6.9,-,N/A,,Scattered Clouds,290,2013-01-03 08:53:00
3:53 AM,21.9,17.1,82,30.26,10.0,WNW,5.8,-,N/A,,Clear,290,2013-01-03 09:53:00
4:53 AM,21.9,18.0,85,30.27,8.0,WNW,9.2,-,N/A,,Clear,300,2013-01-03 10:53:00
5:53 AM,19.9,18.0,92,30.30,7.0,West,6.9,-,N/A,,Clear,270,2013-01-03 11:53:00
6:53 AM,16.0,14.0,92,30.33,7.0,SW,10.4,-,N/A,,Clear,220,2013-01-03 12:53:00
7:53 AM,18.0,16.0,92,30.35,4.0,SW,10.4,-,N/A,,Clear,220,2013-01-03 13:53:00
8:53 AM,21.9,19.0,89,30.37,5.0,WSW,10.4,-,N/A,,Clear,250,2013-01-03 14:53:00
9:53 AM,27.0,21.9,81,30.39,7.0,West,9.2,-,N/A,,Clear,280,2013-01-03 15:53:00
10:53 AM,30.0,24.1,79,30.40,8.0,West,6.9,-,N/A,,Clear,270,2013-01-03 16:53:00
11:53 AM,33.1,25.0,72,30.38,10.0,West,8.1,-,N/A,,Clear,280,2013-01-03 17:53:00
12:53 PM,34.0,25.0,70,30.36,10.0,WNW,11.5,-,N/A,,Clear,300,2013-01-03 18:53:00
1:53 PM,35.1,25.0,67,30.35,10.0,West,8.1,-,N/A,,Scattered Clouds,280,2013-01-03 19:53:00
2:31 PM,35.6,24.8,65,30.31,10.0,WSW,10.4,-,N/A,,Mostly Cloudy,250,2013-01-03 20:31:00
2:46 PM,35.6,24.8,65,30.32,10.0,West,8.1,-,N/A,,Scattered Clouds,260,2013-01-03 20:46:00
2:53 PM,36.0,25.0,64,30.35,10.0,West,6.9,-,N/A,,Scattered Clouds,270,2013-01-03 20:53:00
3:53 PM,35.1,24.1,64,30.36,10.0,West,8.1,-,N/A,,Partly Cloudy,260,2013-01-03 21:53:00
4:53 PM,28.9,21.9,75,30.38,10.0,WSW,4.6,-,N/A,,Partly Cloudy,250,2013-01-03 22:53:00
5:53 PM,30.9,21.9,69,30.39,10.0,WNW,4.6,-,N/A,,Mostly Cloudy,290,2013-01-03 23:53:00
6:53 PM,30.9,21.9,69,30.41,10.0,WNW,5.8,-,N/A,,Overcast,290,2013-01-04 00:53:00
7:53 PM,30.9,21.9,69,30.41,10.0,WNW,5.8,-,N/A,,Overcast,290,2013-01-04 01:53:00
8:53 PM,23.0,17.1,78,30.40,10.0,Calm,Calm,-,N/A,,Clear,0,2013-01-04 02:53:00
9:53 PM,28.9,21.0,72,30.40,10.0,WNW,4.6,-,N/A,,Overcast,300,2013-01-04 03:53:00
10:53 PM,26.1,21.0,81,30.41,10.0,Calm,Calm,-,N/A,,Overcast,0,2013-01-04 04:53:00
11:53 PM,24.8,19.4,80,30.36,10.0,Calm,Calm,-,N/A,,Overcast,0,2013-01-04 05:53:00